Time,TemperatureF,DewpointF,PressureIn,WindDirection,WindDirectionDegrees,WindSpeedMPH,WindSpeedGustMPH,Humidity,HourlyPrecipIn,Conditions,Clouds,dailyrainin,SoftwareType,DateUTC
2013-03-30 00:00:00,45.1,26.1,30.01,WSW,248,0.0,0.0,47,0.00,CLR,CLR,0.00,WeatherDisplay:10.37,2013-03-30 04:00:00,
2013-03-30 00:01:00,45.1,26.1,30.01,WSW,248,0.0,0.0,47,0.00,CLR,CLR,0.00,WeatherDisplay:10.37,2013-03-30 04:01:00,
2013-03-30 00:06:00,45.3,26.3,30.01,WSW,248,0.0,0.0,47,0.00,CLR,CLR,0.00,WeatherDisplay:10.37,2013-03-30 04:06:00,
2013-03-30 00:11:00,45.0,25.9,30.01,WSW,248,0.0,0.0,47,0.00,CLR,CLR,0.00,WeatherDisplay:10.37,2013-03-30 04:11:00,
2013-03-30 00:16:00,44.8,26.3,30.01,WSW,248,0.0,0.0,48,0.00,CLR,CLR,0.00,WeatherDisplay:10.37,2013-03-30 04:16:00,
2013-03-30 00:21:00,44.8,26.3,30.01,WSW,248,0.0,0.0,48,0.00,CLR,CLR,0.00,WeatherDisplay:10.37,2013-03-30 04:21:00,
2013-03-30 00:26:00,44.4,26.4,30.01,WSW,248,0.0,0.0,49,0.00,CLR,CLR,0.00,WeatherDisplay:10.37,2013-03-30 04:26:00,
2013-03-30 00:32:00,44.4,26.4,30.01,WSW,248,0.0,0.0,49,0.00,CLR,CLR,0.00,WeatherDisplay:10.37,2013-03-30 04:32:00,
2013-03-30 00:37:00,44.2,26.3,30.01,WSW,248,0.0,0.0,49,0.00,CLR,CLR,0.00,WeatherDisplay:10.37,2013-03-30 04:37:00,
2013-03-30 00:42:00,44.2,26.8,30.00,WSW,248,0.0,0.0,50,0.00,CLR,CLR,0.00,WeatherDisplay:10.37,2013-03-30 04:42:00,
2013-03-30 00:47:00,44.2,26.8,30.00,WSW,248,0.0,0.0,50,0.00,CLR,CLR,0.00,WeatherDisplay:10.37,2013-03-30 04:47:00,
2013-03-30 00:52:00,44.2,26.8,30.00,WSW,248,0.0,0.0,50,0.00,CLR,CLR,0.00,WeatherDisplay:10.37,2013-03-30 04:52:00,
2013-03-30 00:57:00,44.2,26.8,30.00,WSW,248,0.0,0.0,50,0.00,CLR,CLR,0.00,WeatherDisplay:10.37,2013-03-30 04:57:00,
2013-03-30 01:02:00,44.2,26.8,30.00,WSW,248,0.0,0.0,50,0.00,CLR,CLR,0.00,WeatherDisplay:10.37,2013-03-30 05:02:00,
2013-03-30 01:07:00,44.2,26.8,30.00,WSW,248,0.0,0.0,50,0.00,CLR,CLR,0.00,WeatherDisplay:10.37,2013-03-30 05:07:00,
2013-03-30 01:12:00,44.2,27.2,30.00,WSW,248,0.0,0.0,51,0.00,CLR,CLR,0.00,WeatherDisplay:10.37,2013-03-30 05:12:00,
2013-03-30 01:17:00,43.9,26.9,30.00,WSW,248,0.0,0.0,51,0.00,CLR,CLR,0.00,WeatherDisplay:10.37,2013-03-30 05:17:00,
2013-03-30 01:22:00,43.9,27.4,30.00,WSW,248,0.0,0.0,52,0.00,CLR,CLR,0.00,WeatherDisplay:10.37,2013-03-30 05:22:00,
2013-03-30 01:28:00,43.5,27.0,29.99,WSW,248,0.0,0.0,52,0.00,CLR,CLR,0.00,WeatherDisplay:10.37,2013-03-30 05:28:00,
2013-03-30 01:33:00,43.3,26.9,29.99,WSW,248,0.0,0.0,52,0.00,CLR,CLR,0.00,WeatherDisplay:10.37,2013-03-30 05:33:00,
2013-03-30 01:38:00,43.2,26.7,29.99,WSW,248,0.0,0.0,52,0.00,CLR,CLR,0.00,WeatherDisplay:10.37,2013-03-30 05:38:00,
2013-03-30 01:43:00,42.6,26.7,29.99,WSW,248,0.0,0.0,53,0.00,CLR,CLR,0.00,WeatherDisplay:10.37,2013-03-30 05:43:00,
2013-03-30 01:48:00,42.4,26.5,29.99,WSW,248,0.0,0.0,53,0.00,CLR,CLR,0.00,WeatherDisplay:10.37,2013-03-30 05:48:00,
2013-03-30 01:53:00,42.4,27.0,29.99,WSW,248,0.0,0.0,54,0.00,CLR,CLR,0.00,WeatherDisplay:10.37,2013-03-30 05:53:00,
2013-03-30 01:58:00,41.7,27.6,29.99,WSW,248,0.0,0.0,57,0.00,CLR,CLR,0.00,WeatherDisplay:10.37,2013-03-30 05:58:00,
2013-03-30 02:03:00,41.4,27.3,29.99,WSW,248,0.0,0.0,57,0.00,CLR,CLR,0.00,WeatherDisplay:10.37,2013-03-30 06:03:00,
2013-03-30 02:08:00,41.0,26.9,29.99,WSW,248,0.0,0.0,57,0.00,CLR,CLR,0.00,WeatherDisplay:10.37,2013-03-30 06:08:00,
2013-03-30 02:13:00,40.8,26.7,29.99,WSW,248,0.0,0.0,57,0.00,CLR,CLR,0.00,WeatherDisplay:10.37,2013-03-30 06:13:00,
2013-03-30 02:19:00,40.5,26.0,29.99,WSW,248,0.0,0.0,56,0.00,CLR,CLR,0.00,WeatherDisplay:10.37,2013-03-30 06:19:00,
2013-03-30 02:24:00,40.3,26.2,29.99,WSW,248,0.0,0.0,57,0.00,CLR,CLR,0.00,WeatherDisplay:10.37,2013-03-30 06:24:00,
2013-03-30 02:29:00,39.9,25.9,29.99,SW,225,0.0,0.0,57,0.00,CLR,CLR,0.00,WeatherDisplay:10.37,2013-03-30 06:29:00,
2013-03-30 02:34:00,39.7,26.2,29.99,SW,225,0.0,0.0,58,0.00,CLR,CLR,0.00,WeatherDisplay:10.37,2013-03-30 06:34:00,
2013-03-30 02:39:00,39.6,26.0,29.99,SW,225,0.0,0.0,58,0.00,CLR,CLR,0.00,WeatherDisplay:10.37,2013-03-30 06:39:00,
2013-03-30 02:44:00,39.6,26.0,29.99,SW,225,0.0,0.0,58,0.00,CLR,CLR,0.00,WeatherDisplay:10.37,2013-03-30 06:44:00,
2013-03-30 02:49:00,39.4,25.8,30.00,SW,225,0.0,0.0,58,0.00,CLR,CLR,0.00,WeatherDisplay:10.37,2013-03-30 06:49:00,
2013-03-30 02:54:00,39.0,25.9,30.00,West,270,0.0,0.0,59,0.00,CLR,CLR,0.00,WeatherDisplay:10.37,2013-03-30 06:54:00,
2013-03-30 02:59:00,38.5,26.2,30.00,WSW,248,0.0,0.0,61,0.00,CLR,CLR,0.00,WeatherDisplay:10.37,2013-03-30 06:59:00,
2013-03-30 03:04:00,38.5,26.2,30.00,WSW,248,0.0,0.0,61,0.00,CLR,CLR,0.00,WeatherDisplay:10.37,2013-03-30 07:04:00,
2013-03-30 03:09:00,38.5,26.2,30.00,WSW,248,0.0,0.0,61,0.00,CLR,CLR,0.00,WeatherDisplay:10.37,2013-03-30 07:09:00,
2013-03-30 03:14:00,39.0,26.7,30.00,SW,225,0.0,0.0,61,0.00,CLR,CLR,0.00,WeatherDisplay:10.37,2013-03-30 07:14:00,
2013-03-30 03:19:00,39.2,26.9,30.00,South,180,0.0,0.0,61,0.00,CLR,CLR,0.00,WeatherDisplay:10.37,2013-03-30 07:19:00,
2013-03-30 03:24:00,39.6,26.8,29.99,SSW,202,0.0,0.0,60,0.00,CLR,CLR,0.00,WeatherDisplay:10.37,2013-03-30 07:24:00,
2013-03-30 03:29:00,39.2,26.9,29.99,SSW,202,0.0,0.0,61,0.00,CLR,CLR,0.00,WeatherDisplay:10.37,2013-03-30 07:29:00,
2013-03-30 03:35:00,39.0,27.1,29.99,SSW,202,0.0,0.0,62,0.00,CLR,CLR,0.00,WeatherDisplay:10.37,2013-03-30 07:35:00,
2013-03-30 03:40:00,38.3,26.8,29.99,NE,45,0.0,0.0,63,0.00,CLR,CLR,0.00,WeatherDisplay:10.37,2013-03-30 07:40:00,
2013-03-30 03:45:00,37.9,26.8,29.99,NE,45,0.0,0.0,64,0.00,CLR,CLR,0.00,WeatherDisplay:10.37,2013-03-30 07:45:00,
2013-03-30 03:50:00,37.8,27.0,29.99,NE,45,0.0,0.0,65,0.00,CLR,CLR,0.00,WeatherDisplay:10.37,2013-03-30 07:50:00,
2013-03-30 03:55:00,37.9,27.2,29.99,NE,45,0.0,0.0,65,0.00,CLR,CLR,0.00,WeatherDisplay:10.37,2013-03-30 07:55:00,
2013-03-30 04:00:00,38.1,27.0,29.99,NE,45,0.0,0.0,64,0.00,CLR,CLR,0.00,WeatherDisplay:10.37,2013-03-30 08:00:00,
2013-03-30 04:05:00,38.8,27.3,29.99,NE,45,0.0,0.0,63,0.00,CLR,CLR,0.00,WeatherDisplay:10.37,2013-03-30 08:05:00,
2013-03-30 04:10:00,39.0,27.9,29.98,NE,45,0.0,0.0,64,0.00,CLR,CLR,0.00,WeatherDisplay:10.37,2013-03-30 08:10:00,
2013-03-30 04:15:00,38.8,27.3,29.98,NE,45,0.0,0.0,63,0.00,CLR,CLR,0.00,WeatherDisplay:10.37,2013-03-30 08:15:00,
2013-03-30 04:21:00,39.0,27.5,29.98,NE,45,0.0,0.0,63,0.00,CLR,CLR,0.00,WeatherDisplay:10.37,2013-03-30 08:21:00,
2013-03-30 04:26:00,38.8,27.3,29.98,NE,45,0.0,0.0,63,0.00,CLR,CLR,0.00,WeatherDisplay:10.37,2013-03-30 08:26:00,
2013-03-30 04:31:00,38.8,27.7,29.99,NE,45,0.0,0.0,64,0.00,CLR,CLR,0.00,WeatherDisplay:10.37,2013-03-30 08:31:00,
2013-03-30 04:37:00,39.0,27.5,29.98,NE,45,0.0,0.0,63,0.00,CLR,CLR,0.00,WeatherDisplay:10.37,2013-03-30 08:37:00,
2013-03-30 04:42:00,39.2,27.7,29.98,ENE,68,0.0,0.0,63,0.00,CLR,CLR,0.00,WeatherDisplay:10.37,2013-03-30 08:42:00,
2013-03-30 04:47:00,39.4,28.2,29.99,ENE,68,0.0,0.0,64,0.00,CLR,CLR,0.00,WeatherDisplay:10.37,2013-03-30 08:47:00,
2013-03-30 04:52:00,39.0,28.2,29.99,ENE,68,0.0,0.0,65,0.00,CLR,CLR,0.00,WeatherDisplay:10.37,2013-03-30 08:52:00,
2013-03-30 04:57:00,38.5,27.7,29.99,ENE,68,0.0,0.0,65,0.00,CLR,CLR,0.00,WeatherDisplay:10.37,2013-03-30 08:57:00,
2013-03-30 05:02:00,38.5,27.4,29.99,SSW,202,0.0,0.0,64,0.00,CLR,CLR,0.00,WeatherDisplay:10.37,2013-03-30 09:02:00,
2013-03-30 05:07:00,38.3,27.6,29.99,SSW,202,0.0,0.0,65,0.00,CLR,CLR,0.00,WeatherDisplay:10.37,2013-03-30 09:07:00,
2013-03-30 05:13:00,38.1,27.4,30.00,SSW,202,0.0,0.0,65,0.00,CLR,CLR,0.00,WeatherDisplay:10.37,2013-03-30 09:13:00,
2013-03-30 05:18:00,38.1,27.4,29.99,SSW,202,0.0,0.0,65,0.00,CLR,CLR,0.00,WeatherDisplay:10.37,2013-03-30 09:18:00,
2013-03-30 05:23:00,37.9,27.2,29.99,SSW,202,0.0,0.0,65,0.00,CLR,CLR,0.00,WeatherDisplay:10.37,2013-03-30 09:23:00,
2013-03-30 05:28:00,37.9,27.6,29.99,SSW,202,0.0,0.0,66,0.00,CLR,CLR,0.00,WeatherDisplay:10.37,2013-03-30 09:28:00,
2013-03-30 05:33:00,37.9,27.6,29.99,SSW,202,0.0,0.0,66,0.00,CLR,CLR,0.00,WeatherDisplay:10.37,2013-03-30 09:33:00,
2013-03-30 05:34:00,37.9,27.6,29.99,SSW,202,0.0,0.0,66,0.00,CLR,CLR,0.00,WeatherDisplay:10.37,2013-03-30 09:34:00,
2013-03-30 05:39:00,37.9,27.6,29.99,SSW,202,0.0,0.0,66,0.00,CLR,CLR,0.00,WeatherDisplay:10.37,2013-03-30 09:39:00,
2013-03-30 05:44:00,37.6,27.6,30.00,SSW,202,0.0,0.0,67,0.00,CLR,CLR,0.00,WeatherDisplay:10.37,2013-03-30 09:44:00,
2013-03-30 05:49:00,37.0,27.1,29.99,SSW,202,0.0,0.0,67,0.00,CLR,CLR,0.00,WeatherDisplay:10.37,2013-03-30 09:49:00,
2013-03-30 05:54:00,37.0,27.5,30.00,SSW,202,0.0,0.0,68,0.00,CLR,CLR,0.00,WeatherDisplay:10.37,2013-03-30 09:54:00,
2013-03-30 05:59:00,36.5,26.9,30.00,SSW,202,0.0,0.0,68,0.00,CLR,CLR,0.00,WeatherDisplay:10.37,2013-03-30 09:59:00,
2013-03-30 06:04:00,36.5,26.9,30.00,SSW,202,0.0,0.0,68,0.00,CLR,CLR,0.00,WeatherDisplay:10.37,2013-03-30 10:04:00,
2013-03-30 06:09:00,36.5,26.9,30.00,SSW,202,0.0,0.0,68,0.00,CLR,CLR,0.00,WeatherDisplay:10.37,2013-03-30 10:09:00,
2013-03-30 06:14:00,35.8,26.6,30.00,SSW,202,0.0,0.0,69,0.00,CLR,CLR,0.00,WeatherDisplay:10.37,2013-03-30 10:14:00,
2013-03-30 06:19:00,35.4,26.3,30.01,SSW,202,0.0,0.0,69,0.00,CLR,CLR,0.00,WeatherDisplay:10.37,2013-03-30 10:19:00,
2013-03-30 06:24:00,35.6,26.4,30.01,SSW,202,0.0,0.0,69,0.00,CLR,CLR,0.00,WeatherDisplay:10.37,2013-03-30 10:24:00,
2013-03-30 06:30:00,35.4,26.3,30.00,SSW,202,0.0,0.0,69,0.00,CLR,CLR,0.00,WeatherDisplay:10.37,2013-03-30 10:30:00,
2013-03-30 06:35:00,35.2,26.8,30.01,SSW,202,0.0,0.0,71,0.00,CLR,CLR,0.00,WeatherDisplay:10.37,2013-03-30 10:35:00,
2013-03-30 06:40:00,35.4,26.9,30.01,SSW,202,0.0,0.0,71,0.00,CLR,CLR,0.00,WeatherDisplay:10.37,2013-03-30 10:40:00,
2013-03-30 06:45:00,35.2,26.8,30.01,SSW,202,0.0,0.0,71,0.00,CLR,CLR,0.00,WeatherDisplay:10.37,2013-03-30 10:45:00,
2013-03-30 06:50:00,35.1,26.9,30.01,SSW,202,0.0,0.0,72,0.00,CLR,CLR,0.00,WeatherDisplay:10.37,2013-03-30 10:50:00,
2013-03-30 06:55:00,35.1,26.9,30.02,SSW,202,0.0,0.0,72,0.00,CLR,CLR,0.00,WeatherDisplay:10.37,2013-03-30 10:55:00,
2013-03-30 07:00:00,34.9,27.1,30.01,SSW,202,0.0,0.0,73,0.00,CLR,CLR,0.00,WeatherDisplay:10.37,2013-03-30 11:00:00,
2013-03-30 07:05:00,34.9,27.1,30.01,SSW,202,0.0,0.0,73,0.00,CLR,CLR,0.00,WeatherDisplay:10.37,2013-03-30 11:05:00,
2013-03-30 07:11:00,34.9,27.1,30.01,SSW,202,0.0,0.0,73,0.00,CLR,CLR,0.00,WeatherDisplay:10.37,2013-03-30 11:11:00,
2013-03-30 07:16:00,34.7,26.9,30.02,SSW,202,0.0,0.0,73,0.00,CLR,CLR,0.00,WeatherDisplay:10.37,2013-03-30 11:16:00,
2013-03-30 07:21:00,34.7,27.3,30.02,SSW,202,0.0,0.0,74,0.00,CLR,CLR,0.00,WeatherDisplay:10.37,2013-03-30 11:21:00,
2013-03-30 07:26:00,34.7,27.6,30.01,SSW,202,0.0,0.0,75,0.00,CLR,CLR,0.00,WeatherDisplay:10.37,2013-03-30 11:26:00,
2013-03-30 07:31:00,34.9,27.4,30.02,SSW,202,0.0,0.0,74,0.00,CLR,CLR,0.00,WeatherDisplay:10.37,2013-03-30 11:31:00,
2013-03-30 07:37:00,34.5,26.8,30.02,SSW,202,0.0,0.0,73,0.00,CLR,CLR,0.00,WeatherDisplay:10.37,2013-03-30 11:37:00,
2013-03-30 07:42:00,34.5,26.8,30.02,SSW,202,0.0,0.0,73,0.00,CLR,CLR,0.00,WeatherDisplay:10.37,2013-03-30 11:42:00,
2013-03-30 07:47:00,34.3,26.9,30.02,SSW,202,0.0,0.0,74,0.00,CLR,CLR,0.00,WeatherDisplay:10.37,2013-03-30 11:47:00,
2013-03-30 07:53:00,34.5,27.4,30.02,SSW,202,0.0,0.0,75,0.00,CLR,CLR,0.00,WeatherDisplay:10.37,2013-03-30 11:53:00,
2013-03-30 07:58:00,34.3,27.2,30.02,SSW,202,0.0,0.0,75,0.00,CLR,CLR,0.00,WeatherDisplay:10.37,2013-03-30 11:58:00,
2013-03-30 08:03:00,34.2,27.1,30.02,SSW,202,0.0,0.0,75,0.00,CLR,CLR,0.00,WeatherDisplay:10.37,2013-03-30 12:03:00,
2013-03-30 08:08:00,34.0,26.9,30.02,SSW,202,0.0,0.0,75,0.00,CLR,CLR,0.00,WeatherDisplay:10.37,2013-03-30 12:08:00,
2013-03-30 08:13:00,34.2,27.1,30.03,SSW,202,0.0,0.0,75,0.00,CLR,CLR,0.00,WeatherDisplay:10.37,2013-03-30 12:13:00,
2013-03-30 08:18:00,34.3,27.2,30.02,SSW,202,0.0,0.0,75,0.00,CLR,CLR,0.00,WeatherDisplay:10.37,2013-03-30 12:18:00,
2013-03-30 08:23:00,34.5,27.4,30.03,SSW,202,0.0,0.0,75,0.00,CLR,CLR,0.00,WeatherDisplay:10.37,2013-03-30 12:23:00,
2013-03-30 08:28:00,35.1,27.9,30.03,SSW,202,0.0,0.0,75,0.00,CLR,CLR,0.00,WeatherDisplay:10.37,2013-03-30 12:28:00,
2013-03-30 08:33:00,35.4,28.3,30.03,SSW,202,0.0,0.0,75,0.00,CLR,CLR,0.00,WeatherDisplay:10.37,2013-03-30 12:33:00,
2013-03-30 08:38:00,36.0,28.5,30.03,SSW,202,0.0,0.0,74,0.00,CLR,CLR,0.00,WeatherDisplay:10.37,2013-03-30 12:38:00,
2013-03-30 08:43:00,36.5,29.0,30.03,SSW,202,0.0,0.0,74,0.00,CLR,CLR,0.00,WeatherDisplay:10.37,2013-03-30 12:43:00,
2013-03-30 08:48:00,37.2,29.7,30.03,SSW,202,0.0,0.0,74,0.00,CLR,CLR,0.00,WeatherDisplay:10.37,2013-03-30 12:48:00,
2013-03-30 08:53:00,37.9,30.1,30.04,SSW,202,0.0,0.0,73,0.00,CLR,CLR,0.00,WeatherDisplay:10.37,2013-03-30 12:53:00,
2013-03-30 08:58:00,38.8,29.9,30.04,SSW,202,0.0,0.0,70,0.00,CLR,CLR,0.00,WeatherDisplay:10.37,2013-03-30 12:58:00,
2013-03-30 09:03:00,39.4,30.1,30.03,SSW,202,0.0,0.0,69,0.00,CLR,CLR,0.00,WeatherDisplay:10.37,2013-03-30 13:03:00,
2013-03-30 09:08:00,40.1,30.7,30.03,SSW,202,0.0,0.0,69,0.00,CLR,CLR,0.00,WeatherDisplay:10.37,2013-03-30 13:08:00,
2013-03-30 09:13:00,40.8,31.1,30.04,NE,45,0.0,0.0,68,0.00,CLR,CLR,0.00,WeatherDisplay:10.37,2013-03-30 13:13:00,
2013-03-30 09:19:00,41.5,31.8,30.04,NE,45,0.0,0.0,68,0.00,CLR,CLR,0.00,WeatherDisplay:10.37,2013-03-30 13:19:00,
2013-03-30 09:24:00,42.4,31.9,30.04,ENE,68,0.0,0.0,66,0.00,CLR,CLR,0.00,WeatherDisplay:10.37,2013-03-30 13:24:00,
2013-03-30 09:29:00,43.0,32.4,30.04,ENE,68,0.0,0.0,66,0.00,CLR,CLR,0.00,WeatherDisplay:10.37,2013-03-30 13:29:00,
2013-03-30 09:34:00,43.5,32.1,30.04,ENE,68,3.5,3.5,64,0.00,CLR,CLR,0.00,WeatherDisplay:10.37,2013-03-30 13:34:00,
2013-03-30 09:39:00,45.0,32.7,30.04,NE,45,0.0,0.0,62,0.00,CLR,CLR,0.00,WeatherDisplay:10.37,2013-03-30 13:39:00,
2013-03-30 09:44:00,45.5,33.2,30.04,NE,45,0.0,0.0,62,0.00,CLR,CLR,0.00,WeatherDisplay:10.37,2013-03-30 13:44:00,
2013-03-30 09:49:00,46.4,33.3,30.04,ENE,68,0.0,0.0,60,0.00,CLR,CLR,0.00,WeatherDisplay:10.37,2013-03-30 13:49:00,
2013-03-30 09:54:00,46.9,33.3,30.03,ENE,68,0.0,0.0,59,0.00,CLR,CLR,0.00,WeatherDisplay:10.37,2013-03-30 13:54:00,
2013-03-30 10:00:00,47.3,33.3,30.03,East,90,1.7,1.7,58,0.00,CLR,CLR,0.00,WeatherDisplay:10.37,2013-03-30 14:00:00,
2013-03-30 10:05:00,48.0,32.2,30.03,ENE,68,5.3,5.8,54,0.00,CLR,CLR,0.00,WeatherDisplay:10.37,2013-03-30 14:05:00,
2013-03-30 10:10:00,48.0,31.7,30.03,NE,45,0.0,0.0,53,0.00,CLR,CLR,0.00,WeatherDisplay:10.37,2013-03-30 14:10:00,
2013-03-30 10:15:00,48.7,31.9,30.03,ENE,68,5.3,5.8,52,0.00,CLR,CLR,0.00,WeatherDisplay:10.37,2013-03-30 14:15:00,
2013-03-30 10:20:00,49.3,31.9,30.03,NE,45,4.0,4.0,51,0.00,CLR,CLR,0.00,WeatherDisplay:10.37,2013-03-30 14:20:00,
2013-03-30 10:25:00,49.6,32.2,30.03,East,90,0.0,0.0,51,0.00,CLR,CLR,0.00,WeatherDisplay:10.37,2013-03-30 14:25:00,
2013-03-30 10:30:00,49.8,31.4,30.03,ESE,112,0.0,0.0,49,0.00,CLR,CLR,0.00,WeatherDisplay:10.37,2013-03-30 14:30:00,
2013-03-30 10:35:00,50.2,31.2,30.02,East,90,0.4,0.4,48,0.00,CLR,CLR,0.00,WeatherDisplay:10.37,2013-03-30 14:35:00,
2013-03-30 10:41:00,50.7,31.2,30.03,ENE,68,0.0,0.0,47,0.00,CLR,CLR,0.00,WeatherDisplay:10.37,2013-03-30 14:41:00,
2013-03-30 10:46:00,50.9,31.4,30.03,WNW,292,0.0,0.0,47,0.00,CLR,CLR,0.00,WeatherDisplay:10.37,2013-03-30 14:46:00,
2013-03-30 10:52:00,52.0,31.3,30.02,SE,135,0.0,0.0,45,0.00,CLR,CLR,0.00,WeatherDisplay:10.37,2013-03-30 14:52:00,
2013-03-30 10:57:00,52.0,31.3,30.02,SE,135,2.2,2.3,45,0.00,CLR,CLR,0.00,WeatherDisplay:10.37,2013-03-30 14:57:00,
2013-03-30 11:02:00,52.5,31.2,30.02,SSE,158,1.3,1.3,44,0.00,CLR,CLR,0.00,WeatherDisplay:10.37,2013-03-30 15:02:00,
2013-03-30 11:07:00,52.9,31.5,30.02,SSE,158,0.0,0.0,44,0.00,CLR,CLR,0.00,WeatherDisplay:10.37,2013-03-30 15:07:00,
2013-03-30 11:12:00,52.9,31.5,30.02,SE,135,0.0,0.0,44,0.00,CLR,CLR,0.00,WeatherDisplay:10.37,2013-03-30 15:12:00,
2013-03-30 11:17:00,52.9,31.5,30.01,North,0,3.1,3.1,44,0.00,CLR,CLR,0.00,WeatherDisplay:10.37,2013-03-30 15:17:00,
2013-03-30 11:23:00,53.4,32.0,30.00,ENE,68,0.0,0.0,44,0.00,CLR,CLR,0.00,WeatherDisplay:10.37,2013-03-30 15:23:00,
2013-03-30 11:28:00,53.2,31.9,30.01,WSW,248,0.0,0.0,44,0.00,CLR,CLR,0.00,WeatherDisplay:10.37,2013-03-30 15:28:00,
2013-03-30 11:33:00,53.4,31.5,30.01,NE,45,4.2,4.6,43,0.00,CLR,CLR,0.00,WeatherDisplay:10.37,2013-03-30 15:33:00,
2013-03-30 11:38:00,54.1,30.9,30.00,NNE,22,0.0,0.0,41,0.00,CLR,CLR,0.00,WeatherDisplay:10.37,2013-03-30 15:38:00,
2013-03-30 11:43:00,54.3,31.1,30.01,WSW,248,0.0,0.0,41,0.00,CLR,CLR,0.00,WeatherDisplay:10.37,2013-03-30 15:43:00,
2013-03-30 11:48:00,54.7,30.8,30.00,WNW,292,0.0,0.0,40,0.00,CLR,CLR,0.00,WeatherDisplay:10.37,2013-03-30 15:48:00,
2013-03-30 11:53:00,55.2,31.3,30.00,SE,135,0.0,0.0,40,0.00,CLR,CLR,0.00,WeatherDisplay:10.37,2013-03-30 15:53:00,
2013-03-30 11:58:00,55.0,31.1,30.00,North,0,0.0,0.0,40,0.00,CLR,CLR,0.00,WeatherDisplay:10.37,2013-03-30 15:58:00,
2013-03-30 12:03:00,55.6,32.2,30.00,SSW,202,0.0,0.0,41,0.00,CLR,CLR,0.00,WeatherDisplay:10.37,2013-03-30 16:03:00,
2013-03-30 12:08:00,55.6,31.6,29.99,ENE,68,0.0,0.0,40,0.00,CLR,CLR,0.00,WeatherDisplay:10.37,2013-03-30 16:08:00,
2013-03-30 12:13:00,56.1,32.1,29.99,West,270,0.0,0.0,40,0.00,CLR,CLR,0.00,WeatherDisplay:10.37,2013-03-30 16:13:00,
2013-03-30 12:18:00,56.8,32.8,29.99,NW,315,0.0,0.0,40,0.00,CLR,CLR,0.00,WeatherDisplay:10.37,2013-03-30 16:18:00,
2013-03-30 12:23:00,57.2,31.8,29.99,East,90,0.2,0.2,38,0.00,CLR,CLR,0.00,WeatherDisplay:10.37,2013-03-30 16:23:00,
2013-03-30 12:28:00,57.4,31.3,29.99,West,270,0.0,0.0,37,0.00,CLR,CLR,0.00,WeatherDisplay:10.37,2013-03-30 16:28:00,
2013-03-30 12:33:00,57.2,31.8,29.98,WSW,248,5.2,6.9,38,0.00,CLR,CLR,0.00,WeatherDisplay:10.37,2013-03-30 16:33:00,
2013-03-30 12:38:00,57.0,31.6,29.99,SW,225,4.0,4.0,38,0.00,CLR,CLR,0.00,WeatherDisplay:10.37,2013-03-30 16:38:00,
2013-03-30 12:43:00,57.4,32.0,29.99,WSW,248,3.1,3.5,38,0.00,CLR,CLR,0.00,WeatherDisplay:10.37,2013-03-30 16:43:00,
2013-03-30 12:48:00,57.2,30.5,29.99,West,270,0.0,0.0,36,0.00,CLR,CLR,0.00,WeatherDisplay:10.37,2013-03-30 16:48:00,
2013-03-30 12:53:00,57.4,31.3,29.98,SW,225,0.8,1.2,37,0.00,CLR,CLR,0.00,WeatherDisplay:10.37,2013-03-30 16:53:00,
2013-03-30 12:58:00,57.9,32.4,29.97,West,270,0.0,0.0,38,0.00,CLR,CLR,0.00,WeatherDisplay:10.37,2013-03-30 16:58:00,
2013-03-30 13:03:00,58.6,33.7,29.97,ESE,112,0.0,0.0,39,0.00,CLR,CLR,0.00,WeatherDisplay:10.37,2013-03-30 17:03:00,
2013-03-30 13:09:00,58.6,32.4,29.97,SW,225,0.0,0.0,37,0.00,CLR,CLR,0.00,WeatherDisplay:10.37,2013-03-30 17:09:00,
2013-03-30 13:14:00,58.6,31.7,29.97,SSW,202,2.0,2.3,36,0.00,CLR,CLR,0.00,WeatherDisplay:10.37,2013-03-30 17:14:00,
2013-03-30 13:19:00,59.2,32.9,29.97,ESE,112,0.0,0.0,37,0.00,CLR,CLR,0.00,WeatherDisplay:10.37,2013-03-30 17:19:00,
2013-03-30 13:24:00,59.4,33.1,29.96,ENE,68,3.1,3.5,37,0.00,CLR,CLR,0.00,WeatherDisplay:10.37,2013-03-30 17:24:00,
2013-03-30 13:29:00,59.7,33.4,29.96,East,90,0.0,0.0,37,0.00,CLR,CLR,0.00,WeatherDisplay:10.37,2013-03-30 17:29:00,
2013-03-30 13:34:00,60.3,34.5,29.96,South,180,0.0,0.0,38,0.00,CLR,CLR,0.00,WeatherDisplay:10.37,2013-03-30 17:34:00,
2013-03-30 13:39:00,60.4,32.6,29.96,NE,45,2.6,2.6,35,0.00,CLR,CLR,0.00,WeatherDisplay:10.37,2013-03-30 17:39:00,
2013-03-30 13:44:00,59.7,32.0,29.95,ENE,68,1.1,1.2,35,0.00,CLR,CLR,0.00,WeatherDisplay:10.37,2013-03-30 17:44:00,
2013-03-30 13:49:00,60.1,33.7,29.95,East,90,0.0,0.0,37,0.00,CLR,CLR,0.00,WeatherDisplay:10.37,2013-03-30 17:49:00,
2013-03-30 13:55:00,60.3,33.2,29.95,South,180,0.0,0.0,36,0.00,CLR,CLR,0.00,WeatherDisplay:10.37,2013-03-30 17:55:00,
2013-03-30 14:00:00,60.6,33.5,29.95,SE,135,4.0,4.0,36,0.00,CLR,CLR,0.00,WeatherDisplay:10.37,2013-03-30 18:00:00,
2013-03-30 14:05:00,61.3,34.1,29.94,WSW,248,0.0,0.0,36,0.00,CLR,CLR,0.00,WeatherDisplay:10.37,2013-03-30 18:05:00,
2013-03-30 14:10:00,61.7,34.5,29.94,West,270,0.0,0.0,36,0.00,CLR,CLR,0.00,WeatherDisplay:10.37,2013-03-30 18:10:00,
2013-03-30 14:15:00,62.2,34.2,29.94,WNW,292,1.5,0.0,35,0.00,CLR,CLR,0.00,WeatherDisplay:10.37,2013-03-30 18:15:00,
2013-03-30 14:20:00,62.2,34.2,29.94,ENE,68,0.0,0.0,35,0.00,CLR,CLR,0.00,WeatherDisplay:10.37,2013-03-30 18:20:00,
2013-03-30 14:26:00,61.7,33.7,29.93,ENE,68,0.0,0.0,35,0.00,CLR,CLR,0.00,WeatherDisplay:10.37,2013-03-30 18:26:00,
2013-03-30 14:31:00,61.9,33.2,29.93,North,0,0.0,0.0,34,0.00,CLR,CLR,0.00,WeatherDisplay:10.37,2013-03-30 18:31:00,
2013-03-30 14:36:00,61.9,33.9,29.93,WSW,248,4.0,4.0,35,0.00,CLR,CLR,0.00,WeatherDisplay:10.37,2013-03-30 18:36:00,
2013-03-30 14:41:00,62.1,34.8,29.93,SSW,202,3.3,3.5,36,0.00,CLR,CLR,0.00,WeatherDisplay:10.37,2013-03-30 18:41:00,
2013-03-30 14:46:00,62.6,33.8,29.93,West,270,0.0,0.0,34,0.00,CLR,CLR,0.00,WeatherDisplay:10.37,2013-03-30 18:46:00,
2013-03-30 14:52:00,62.4,33.7,29.93,WNW,292,0.0,0.0,34,0.00,CLR,CLR,0.00,WeatherDisplay:10.37,2013-03-30 18:52:00,
2013-03-30 14:57:00,63.0,33.4,29.93,SW,225,3.8,3.8,33,0.00,CLR,CLR,0.00,WeatherDisplay:10.37,2013-03-30 18:57:00,
2013-03-30 15:02:00,63.1,34.3,29.92,West,270,0.0,0.0,34,0.00,CLR,CLR,0.00,WeatherDisplay:10.37,2013-03-30 19:02:00,
2013-03-30 15:07:00,63.3,33.7,29.92,SSE,158,5.2,5.8,33,0.00,CLR,CLR,0.00,WeatherDisplay:10.37,2013-03-30 19:07:00,
2013-03-30 15:12:00,63.5,33.9,29.92,WSW,248,3.8,3.8,33,0.00,CLR,CLR,0.00,WeatherDisplay:10.37,2013-03-30 19:12:00,
2013-03-30 15:17:00,63.1,32.8,29.92,SSW,202,4.0,4.0,32,0.00,CLR,CLR,0.00,WeatherDisplay:10.37,2013-03-30 19:17:00,
2013-03-30 15:22:00,64.0,35.1,29.91,West,270,0.0,0.0,34,0.00,CLR,CLR,0.00,WeatherDisplay:10.37,2013-03-30 19:22:00,
2013-03-30 15:27:00,64.8,34.2,29.91,East,90,0.0,0.0,32,0.00,CLR,CLR,0.00,WeatherDisplay:10.37,2013-03-30 19:27:00,
2013-03-30 15:33:00,64.6,34.0,29.91,SE,135,0.0,0.0,32,0.00,CLR,CLR,0.00,WeatherDisplay:10.37,2013-03-30 19:33:00,
2013-03-30 15:38:00,64.0,34.3,29.91,WSW,248,3.3,3.5,33,0.00,CLR,CLR,0.00,WeatherDisplay:10.37,2013-03-30 19:38:00,
2013-03-30 15:43:00,64.8,35.0,29.91,East,90,2.6,2.6,33,0.00,CLR,CLR,0.00,WeatherDisplay:10.37,2013-03-30 19:43:00,
2013-03-30 15:48:00,64.6,34.8,29.90,WSW,248,0.0,0.0,33,0.00,CLR,CLR,0.00,WeatherDisplay:10.37,2013-03-30 19:48:00,
2013-03-30 15:53:00,65.1,33.7,29.90,ESE,112,0.0,0.0,31,0.00,CLR,CLR,0.00,WeatherDisplay:10.37,2013-03-30 19:53:00,
2013-03-30 15:58:00,65.1,34.5,29.90,SSW,202,0.0,0.0,32,0.00,CLR,CLR,0.00,WeatherDisplay:10.37,2013-03-30 19:58:00,
2013-03-30 16:04:00,66.0,36.1,29.90,WSW,248,4.0,4.0,33,0.00,CLR,CLR,0.00,WeatherDisplay:10.37,2013-03-30 20:04:00,
2013-03-30 16:09:00,66.4,34.0,29.90,East,90,0.0,0.0,30,0.00,CLR,CLR,0.00,WeatherDisplay:10.37,2013-03-30 20:09:00,
2013-03-30 16:14:00,66.6,35.0,29.89,West,270,5.2,5.8,31,0.00,CLR,CLR,0.00,WeatherDisplay:10.37,2013-03-30 20:14:00,
2013-03-30 16:19:00,66.4,34.0,29.90,SW,225,2.9,3.5,30,0.00,CLR,CLR,0.00,WeatherDisplay:10.37,2013-03-30 20:19:00,
2013-03-30 16:24:00,66.6,35.0,29.90,West,270,4.4,4.6,31,0.00,CLR,CLR,0.00,WeatherDisplay:10.37,2013-03-30 20:24:00,
2013-03-30 16:29:00,66.7,34.3,29.89,NW,315,0.0,0.0,30,0.00,CLR,CLR,0.00,WeatherDisplay:10.37,2013-03-30 20:29:00,
2013-03-30 16:34:00,66.7,32.6,29.89,NE,45,0.0,0.0,28,0.00,CLR,CLR,0.00,WeatherDisplay:10.37,2013-03-30 20:34:00,
2013-03-30 16:39:00,66.9,35.3,29.89,West,270,0.0,0.0,31,0.00,CLR,CLR,0.00,WeatherDisplay:10.37,2013-03-30 20:39:00,
2013-03-30 16:45:00,67.3,33.9,29.89,SW,225,5.3,5.8,29,0.00,CLR,CLR,0.00,WeatherDisplay:10.37,2013-03-30 20:45:00,
2013-03-30 16:50:00,67.6,35.9,29.89,WSW,248,4.9,4.9,31,0.00,CLR,CLR,0.00,WeatherDisplay:10.37,2013-03-30 20:50:00,
2013-03-30 16:55:00,67.3,34.8,29.89,NE,45,0.0,0.0,30,0.00,CLR,CLR,0.00,WeatherDisplay:10.37,2013-03-30 20:55:00,
2013-03-30 17:00:00,66.4,34.0,29.88,ENE,68,0.0,0.0,30,0.00,CLR,CLR,0.00,WeatherDisplay:10.37,2013-03-30 21:00:00,
2013-03-30 17:05:00,66.6,35.0,29.88,West,270,0.0,0.0,31,0.00,CLR,CLR,0.00,WeatherDisplay:10.37,2013-03-30 21:05:00,
2013-03-30 17:10:00,66.9,34.5,29.88,SW,225,2.6,2.6,30,0.00,CLR,CLR,0.00,WeatherDisplay:10.37,2013-03-30 21:10:00,
2013-03-30 17:15:00,66.9,34.5,29.88,SW,225,2.0,2.3,30,0.00,CLR,CLR,0.00,WeatherDisplay:10.37,2013-03-30 21:15:00,
2013-03-30 17:21:00,66.0,34.5,29.88,WSW,248,3.1,3.5,31,0.00,CLR,CLR,0.00,WeatherDisplay:10.37,2013-03-30 21:21:00,
2013-03-30 17:26:00,65.5,33.2,29.87,SE,135,0.0,0.0,30,0.00,CLR,CLR,0.00,WeatherDisplay:10.37,2013-03-30 21:26:00,
2013-03-30 17:31:00,64.9,34.3,29.88,SW,225,2.2,3.5,32,0.00,CLR,CLR,0.00,WeatherDisplay:10.37,2013-03-30 21:31:00,
2013-03-30 17:36:00,64.2,33.7,29.88,ESE,112,0.0,0.0,32,0.00,CLR,CLR,0.00,WeatherDisplay:10.37,2013-03-30 21:36:00,
2013-03-30 17:42:00,64.6,34.0,29.88,NE,45,0.0,0.0,32,0.00,CLR,CLR,0.00,WeatherDisplay:10.37,2013-03-30 21:42:00,
2013-03-30 17:47:00,64.0,33.6,29.87,SE,135,0.0,0.0,32,0.00,CLR,CLR,0.00,WeatherDisplay:10.37,2013-03-30 21:47:00,
2013-03-30 17:52:00,64.0,33.6,29.87,SE,135,0.0,0.0,32,0.00,CLR,CLR,0.00,WeatherDisplay:10.37,2013-03-30 21:52:00,
2013-03-30 17:57:00,64.0,34.3,29.88,SSW,202,5.8,5.8,33,0.00,CLR,CLR,0.00,WeatherDisplay:10.37,2013-03-30 21:57:00,
2013-03-30 18:02:00,63.5,33.1,29.88,SW,225,5.8,5.8,32,0.00,CLR,CLR,0.00,WeatherDisplay:10.37,2013-03-30 22:02:00,
2013-03-30 18:07:00,63.0,33.4,29.88,South,180,3.5,4.6,33,0.00,CLR,CLR,0.00,WeatherDisplay:10.37,2013-03-30 22:07:00,
2013-03-30 18:12:00,62.4,32.9,29.88,South,180,4.9,4.9,33,0.00,CLR,CLR,0.00,WeatherDisplay:10.37,2013-03-30 22:12:00,
2013-03-30 18:17:00,61.9,32.4,29.88,SSW,202,0.0,0.0,33,0.00,CLR,CLR,0.00,WeatherDisplay:10.37,2013-03-30 22:17:00,
2013-03-30 18:22:00,61.7,33.0,29.88,SW,225,0.0,0.0,34,0.00,CLR,CLR,0.00,WeatherDisplay:10.37,2013-03-30 22:22:00,
2013-03-30 18:28:00,61.3,32.7,29.88,South,180,3.1,3.5,34,0.00,CLR,CLR,0.00,WeatherDisplay:10.37,2013-03-30 22:28:00,
2013-03-30 18:33:00,61.3,32.7,29.88,SSW,202,0.0,0.0,34,0.00,CLR,CLR,0.00,WeatherDisplay:10.37,2013-03-30 22:33:00,
2013-03-30 18:38:00,61.3,34.1,29.88,East,90,0.0,0.0,36,0.00,CLR,CLR,0.00,WeatherDisplay:10.37,2013-03-30 22:38:00,
2013-03-30 18:43:00,61.5,33.6,29.88,SE,135,0.0,0.0,35,0.00,CLR,CLR,0.00,WeatherDisplay:10.37,2013-03-30 22:43:00,
2013-03-30 18:48:00,61.3,33.4,29.88,ESE,112,0.0,0.0,35,0.00,CLR,CLR,0.00,WeatherDisplay:10.37,2013-03-30 22:48:00,
2013-03-30 18:53:00,60.6,32.8,29.88,ESE,112,0.0,0.0,35,0.00,CLR,CLR,0.00,WeatherDisplay:10.37,2013-03-30 22:53:00,
2013-03-30 18:58:00,60.4,34.0,29.88,ESE,112,0.0,0.0,37,0.00,CLR,CLR,0.00,WeatherDisplay:10.37,2013-03-30 22:58:00,
2013-03-30 19:03:00,59.7,33.4,29.88,SSW,202,0.0,0.0,37,0.00,CLR,CLR,0.00,WeatherDisplay:10.37,2013-03-30 23:03:00,
2013-03-30 19:08:00,59.0,33.4,29.88,ENE,68,0.0,0.0,38,0.00,CLR,CLR,0.00,WeatherDisplay:10.37,2013-03-30 23:08:00,
2013-03-30 19:13:00,58.8,33.2,29.88,ENE,68,0.0,0.0,38,0.00,CLR,CLR,0.00,WeatherDisplay:10.37,2013-03-30 23:13:00,
2013-03-30 19:18:00,58.5,33.6,29.88,ENE,68,0.0,0.0,39,0.00,CLR,CLR,0.00,WeatherDisplay:10.37,2013-03-30 23:18:00,
2013-03-30 19:23:00,57.7,33.6,29.88,ENE,68,0.0,0.0,40,0.00,CLR,CLR,0.00,WeatherDisplay:10.37,2013-03-30 23:23:00,
2013-03-30 19:28:00,57.6,33.4,29.88,ENE,68,0.0,0.0,40,0.00,CLR,CLR,0.00,WeatherDisplay:10.37,2013-03-30 23:28:00,
2013-03-30 19:34:00,57.0,33.5,29.88,ENE,68,0.0,0.0,41,0.00,CLR,CLR,0.00,WeatherDisplay:10.37,2013-03-30 23:34:00,
2013-03-30 19:39:00,56.5,33.0,29.87,ENE,68,0.0,0.0,41,0.00,CLR,CLR,0.00,WeatherDisplay:10.37,2013-03-30 23:39:00,
2013-03-30 19:44:00,56.1,32.7,29.88,South,180,0.0,0.0,41,0.00,CLR,CLR,0.00,WeatherDisplay:10.37,2013-03-30 23:44:00,
2013-03-30 19:49:00,55.6,32.8,29.88,South,180,0.0,0.0,42,0.00,CLR,CLR,0.00,WeatherDisplay:10.37,2013-03-30 23:49:00,
2013-03-30 19:54:00,55.2,32.5,29.88,South,180,0.0,0.0,42,0.00,CLR,CLR,0.00,WeatherDisplay:10.37,2013-03-30 23:54:00,
2013-03-30 19:59:00,54.9,32.8,29.88,South,180,0.0,0.0,43,0.00,CLR,CLR,0.00,WeatherDisplay:10.37,2013-03-30 23:59:00,
2013-03-30 20:05:00,54.7,32.6,29.88,South,180,0.0,0.0,43,0.00,CLR,CLR,0.00,WeatherDisplay:10.37,2013-03-31 00:05:00,
2013-03-30 20:10:00,54.5,32.4,29.88,SSW,202,0.0,0.0,43,0.00,CLR,CLR,0.00,WeatherDisplay:10.37,2013-03-31 00:10:00,
2013-03-30 20:15:00,54.1,33.2,29.88,West,270,0.0,0.0,45,0.00,CLR,CLR,0.00,WeatherDisplay:10.37,2013-03-31 00:15:00,
2013-03-30 20:20:00,54.1,33.2,29.88,East,90,0.0,0.0,45,0.00,CLR,CLR,0.00,WeatherDisplay:10.37,2013-03-31 00:20:00,
2013-03-30 20:25:00,54.3,33.4,29.88,East,90,0.0,0.0,45,0.00,CLR,CLR,0.00,WeatherDisplay:10.37,2013-03-31 00:25:00,
2013-03-30 20:30:00,55.0,33.5,29.88,SSE,158,0.0,0.0,44,0.00,CLR,CLR,0.00,WeatherDisplay:10.37,2013-03-31 00:30:00,
2013-03-30 20:35:00,55.0,33.5,29.88,SSE,158,0.0,0.0,44,0.00,CLR,CLR,0.00,WeatherDisplay:10.37,2013-03-31 00:35:00,
2013-03-30 20:40:00,55.0,33.5,29.88,East,90,0.0,0.0,44,0.00,CLR,CLR,0.00,WeatherDisplay:10.37,2013-03-31 00:40:00,
2013-03-30 20:46:00,54.7,33.7,29.88,East,90,0.0,0.0,45,0.00,CLR,CLR,0.00,WeatherDisplay:10.37,2013-03-31 00:46:00,
2013-03-30 20:51:00,54.7,34.3,29.88,East,90,0.0,0.0,46,0.00,CLR,CLR,0.00,WeatherDisplay:10.37,2013-03-31 00:51:00,
2013-03-30 20:57:00,54.5,34.1,29.89,East,90,0.0,0.0,46,0.00,CLR,CLR,0.00,WeatherDisplay:10.37,2013-03-31 00:57:00,
2013-03-30 21:02:00,54.5,34.1,29.88,ESE,112,0.0,0.0,46,0.00,CLR,CLR,0.00,WeatherDisplay:10.37,2013-03-31 01:02:00,
2013-03-30 21:07:00,54.3,34.0,29.89,East,90,0.0,0.0,46,0.00,CLR,CLR,0.00,WeatherDisplay:10.37,2013-03-31 01:07:00,
2013-03-30 21:12:00,54.3,34.5,29.89,East,90,0.0,0.0,47,0.00,CLR,CLR,0.00,WeatherDisplay:10.37,2013-03-31 01:12:00,
2013-03-30 21:17:00,54.1,34.9,29.88,East,90,0.0,0.0,48,0.00,CLR,CLR,0.00,WeatherDisplay:10.37,2013-03-31 01:17:00,
2013-03-30 21:22:00,54.0,34.2,29.88,East,90,0.0,0.0,47,0.00,CLR,CLR,0.00,WeatherDisplay:10.37,2013-03-31 01:22:00,
2013-03-30 21:27:00,53.8,34.5,29.88,East,90,0.0,0.0,48,0.00,CLR,CLR,0.00,WeatherDisplay:10.37,2013-03-31 01:27:00,
2013-03-30 21:32:00,53.4,34.7,29.88,East,90,0.0,0.0,49,0.00,CLR,CLR,0.00,WeatherDisplay:10.37,2013-03-31 01:32:00,
2013-03-30 21:37:00,53.2,34.0,29.89,East,90,0.0,0.0,48,0.00,CLR,CLR,0.00,WeatherDisplay:10.37,2013-03-31 01:37:00,
2013-03-30 21:42:00,53.2,34.6,29.88,East,90,0.0,0.0,49,0.00,CLR,CLR,0.00,WeatherDisplay:10.37,2013-03-31 01:42:00,
2013-03-30 21:47:00,53.4,35.2,29.88,WSW,248,0.0,0.0,50,0.00,CLR,CLR,0.00,WeatherDisplay:10.37,2013-03-31 01:47:00,
2013-03-30 21:53:00,53.6,34.9,29.88,SW,225,0.0,0.0,49,0.00,CLR,CLR,0.00,WeatherDisplay:10.37,2013-03-31 01:53:00,
2013-03-30 21:58:00,53.8,35.1,29.89,ESE,112,0.0,0.0,49,0.00,CLR,CLR,0.00,WeatherDisplay:10.37,2013-03-31 01:58:00,
2013-03-30 22:03:00,53.4,35.2,29.89,ESE,112,0.0,0.0,50,0.00,CLR,CLR,0.00,WeatherDisplay:10.37,2013-03-31 02:03:00,
2013-03-30 22:08:00,53.2,35.1,29.88,ESE,112,0.0,0.0,50,0.00,CLR,CLR,0.00,WeatherDisplay:10.37,2013-03-31 02:08:00,
2013-03-30 22:13:00,52.7,34.6,29.88,ESE,112,0.0,0.0,50,0.00,CLR,CLR,0.00,WeatherDisplay:10.37,2013-03-31 02:13:00,
2013-03-30 22:18:00,52.3,34.7,29.88,ESE,112,0.0,0.0,51,0.00,CLR,CLR,0.00,WeatherDisplay:10.37,2013-03-31 02:18:00,
2013-03-30 22:23:00,52.0,34.4,29.88,ESE,112,0.0,0.0,51,0.00,CLR,CLR,0.00,WeatherDisplay:10.37,2013-03-31 02:23:00,
2013-03-30 22:28:00,51.6,34.6,29.89,ESE,112,0.0,0.0,52,0.00,CLR,CLR,0.00,WeatherDisplay:10.37,2013-03-31 02:28:00,
2013-03-30 22:33:00,51.6,35.0,29.88,ESE,112,0.0,0.0,53,0.00,CLR,CLR,0.00,WeatherDisplay:10.37,2013-03-31 02:33:00,
2013-03-30 22:38:00,51.6,35.0,29.88,ESE,112,0.0,0.0,53,0.00,CLR,CLR,0.00,WeatherDisplay:10.37,2013-03-31 02:38:00,
2013-03-30 22:44:00,52.3,35.7,29.88,South,180,0.0,0.0,53,0.00,CLR,CLR,0.00,WeatherDisplay:10.37,2013-03-31 02:44:00,
2013-03-30 22:49:00,52.2,35.5,29.88,South,180,0.0,0.0,53,0.00,CLR,CLR,0.00,WeatherDisplay:10.37,2013-03-31 02:49:00,
2013-03-30 22:54:00,51.6,35.5,29.88,South,180,0.0,0.0,54,0.00,CLR,CLR,0.00,WeatherDisplay:10.37,2013-03-31 02:54:00,
2013-03-30 22:59:00,51.4,34.9,29.88,South,180,0.0,0.0,53,0.00,CLR,CLR,0.00,WeatherDisplay:10.37,2013-03-31 02:59:00,
2013-03-30 23:04:00,51.1,35.0,29.88,South,180,0.0,0.0,54,0.00,CLR,CLR,0.00,WeatherDisplay:10.37,2013-03-31 03:04:00,
2013-03-30 23:09:00,51.1,35.5,29.88,South,180,0.0,0.0,55,0.00,CLR,CLR,0.00,WeatherDisplay:10.37,2013-03-31 03:09:00,
2013-03-30 23:14:00,51.4,35.8,29.88,South,180,0.0,0.0,55,0.00,CLR,CLR,0.00,WeatherDisplay:10.37,2013-03-31 03:14:00,
2013-03-30 23:19:00,51.8,36.1,29.88,South,180,0.0,0.0,55,0.00,CLR,CLR,0.00,WeatherDisplay:10.37,2013-03-31 03:19:00,
2013-03-30 23:24:00,52.0,35.8,29.88,South,180,0.0,0.0,54,0.00,CLR,CLR,0.00,WeatherDisplay:10.37,2013-03-31 03:24:00,
2013-03-30 23:29:00,52.0,35.8,29.87,South,180,0.0,0.0,54,0.00,CLR,CLR,0.00,WeatherDisplay:10.37,2013-03-31 03:29:00,
2013-03-30 23:35:00,51.4,35.8,29.87,South,180,0.0,0.0,55,0.00,CLR,CLR,0.00,WeatherDisplay:10.37,2013-03-31 03:35:00,
2013-03-30 23:40:00,51.1,35.5,29.87,South,180,0.0,0.0,55,0.00,CLR,CLR,0.00,WeatherDisplay:10.37,2013-03-31 03:40:00,
2013-03-30 23:45:00,50.7,35.1,29.87,South,180,0.0,0.0,55,0.00,CLR,CLR,0.00,WeatherDisplay:10.37,2013-03-31 03:45:00,
2013-03-30 23:50:00,50.5,35.4,29.87,South,180,0.0,0.0,56,0.00,CLR,CLR,0.00,WeatherDisplay:10.37,2013-03-31 03:50:00,
2013-03-30 23:55:00,50.4,35.2,29.87,South,180,0.0,0.0,56,0.00,CLR,CLR,0.00,WeatherDisplay:10.37,2013-03-31 03:55:00,